Location: Cz?stochówka
(50.8142°N, 19.0915°E)
Time: 20:23:08
(UTC+00:00)

SeaSat 1 - Pass Details

Date: 13 January 2026
Orbit: 737 x 739 km, 108.0° (Epoch: 13 February)

Event Time Altitude Azimuth Distance (km) Brightness Sun altitude
Rises 05:53:07 0° 27° (NNE) 3,186 5.7 -7.4°
Reaches altitude 10° 05:55:26 10° 22° (NNE) 2,259 4.9 -7.1°
Maximum altitude 06:00:09 50° 309° (NW) 948 2.6 -6.4°
Drops below altitude 10° 06:04:51 10° 235° (SW) 2,247 4.7 -5.8°
Sets 06:07:09 0° 230° (SW) 3,167 5.5 -5.4°
